Regional Weather Roundup
Issued by NWS

Home | Current Version | Previous Version | Graphics & Text | Print | Product List | Glossary On
Versions: 1 2 3 4 5 6 7 8 9 10 11 12 13 14 15 16 17 18 19 20 21 22 23 24 25 26 27 28 29 30 31 32 33 34 35 36 37 38 39 40 41 42 43 44 45 46 47 48 49 50
000
ASUS43 KIND 302159
RWRIN

WEATHER ROUNDUP FOR INDIANA
NATIONAL WEATHER SERVICE INDIANAPOLIS IN
600 PM EDT SAT JUL 30 2016

NOTE: "FAIR" INDICATES FEW OR NO CLOUDS BELOW 12,000 FEET WITH NO
SIGNIFICANT WEATHER AND/OR OBSTRUCTIONS TO VISIBILITY.

* - STATION DOES NOT REPORT WEATHER SUCH AS PRECIPITATION OR FOG.

+ - STATION NOT QUALITY CONTROLLED BY THE NATIONAL WEATHER SERVICE.
    USE DATA WITH CAUTION...ESPECIALLY DEWPOINT AND RELATIVE
    HUMIDITY OBSERVATIONS.

INZ001>003-010>013-019-020-302300-
NORTHWEST INDIANA

CITY           SKY/WX    TMP DP  RH WIND       PRES   REMARKS
GARY /AIRPORT/ PTSUNNY   75  70  83 NE12      29.99R
KNOX *+        MOSUNNY   77  57  50 N7        29.95S
MONTICELLO +   MOSUNNY   80  67  64 SW8       29.94S
RENSSELAER +   MOSUNNY   79  72  78 N7        29.96R

$$

LMZ046-743>745-302300-
SOUTHERN LAKE MICHIGAN

STATION/POSITION TIME  TEMP    WIND        PRES    WAVE
                       AIR SEA DIR/SP/G            HT
                 (UTC) (F)     (DEG/KT/KT) (MB)    (FT)
BURNS HARBOR     2111   70      30/ 12/ 16 1015.6S
MICHIGAN CITY    2100   70     350/ 14/ 15   N/A
5NW MICH CITY    2100   71 72   10/ 14/ 16   N/A     2

$$

INZ004-005-014>016-021>024-302300-
NORTH CENTRAL INDIANA

CITY           SKY/WX    TMP DP  RH WIND       PRES   REMARKS
ELKHART        MOSUNNY   79  66  65 NE6       29.96F
GOSHEN         MOSUNNY   78  66  66 NE7       29.95S
SOUTH BEND     PTSUNNY   77  66  68 N7        29.95F

$$

INZ006>009-017-018-025>027-302300-
NORTHEAST INDIANA

CITY           SKY/WX    TMP DP  RH WIND       PRES   REMARKS
ANGOLA *+        N/A     77  70  78 N7        29.95F
FORT WAYNE     MOSUNNY   82  68  62 NW7       29.95S

$$

INZ028-029-035-036-043>045-051>053-302300-
WEST CENTRAL INDIANA

CITY           SKY/WX    TMP DP  RH WIND       PRES   REMARKS
CRAWFORDSVL +  MOSUNNY   80  65  61 W6        29.95S
LAFAYETTE      SUNNY     81  67  62 W6        29.94S
TERRE HAUTE    PTSUNNY   82  64  54 W8        29.95S

$$

INZ030>032-037>040-046>048-054>057-064-065-302300-
CENTRAL INDIANA

CITY           SKY/WX    TMP DP  RH WIND       PRES   REMARKS
COLUMBUS       MOSUNNY   82  70  65 W8        29.95S
INDIANAPOLIS   MOSUNNY   84  65  52 W10       29.95F
-EAGLE CREEK   SUNNY     84  64  50 VRB5      29.94S
KOKOMO *+      SUNNY     82  64  54 NW10      29.93F
SHELBYVILLE    CLOUDY    85  66  53 W8        29.94S

$$

INZ033-034-041-042-049-050-058-059-302300-
EAST CENTRAL INDIANA

CITY           SKY/WX    TMP DP  RH WIND       PRES   REMARKS
MUNCIE         PTSUNNY   84  67  56 MISG      29.94F

$$

INZ060-061-067>069-081>083-085>088-302300-
SOUTHWEST INDIANA

CITY           SKY/WX    TMP DP  RH WIND       PRES   REMARKS
EVANSVILLE     MOSUNNY   83  69  62 NW6       29.95S
HUNTINGBURG *+ MOSUNNY   82  70  65 W5        29.95S

$$

INZ062-063-066-070>080-084-089>092-302300-
SOUTH CENTRAL AND SOUTHEAST INDIANA

CITY           SKY/WX    TMP DP  RH WIND       PRES   REMARKS
BLOOMINGTON    MOSUNNY   82  66  58 W6        29.96S
MADISON *+     CLOUDY    82  72  69 S5        29.98S
SEYMOUR +      CLOUDY    82  73  74 CALM      29.95R

$$




USA.gov is the U.S. government's official web portal to all federal, state and local government web resources and services.